Location: Possagno
(45.8500°N, 11.8667°E)
Time: 09:58:52
(UTC+00:00)

Cosmos 2298 Rocket - Pass Details

Date: 07 June 2020
Orbit: 776 x 784 km, 74.0° (Epoch: 04 July)

Event Time Altitude Azimuth Distance (km) Brightness Sun altitude
Rises 00:08:53 0° 340° (NNW) 3,270 8.2 -20.1°
Reaches altitude 10° 00:11:17 10° 342° (NNW) 2,340 7.3 -20.0°
Maximum altitude 00:16:36 71° 67° (ENE) 825 4.2 -19.8°
Enters shadow 00:19:49 24° 147° (SSE) 1,564 5.2 -19.6°
